Tracking 18843 objects as of 20-November-2017
HD Live streaming from Space Station
objects crossing your sky now

FENGYUN 1C DEB

Track FENGYUN 1C DEB now!
10-day predictions


NORAD ID: 30099
Int'l Code: 1999-025RC
Perigee: 776.7 km
Apogee: 870.7 km
Inclination: 98.7 °
Period: 101.2 minutes
Semi major axis: 7194 km
RCS: 0.039 m2 (small)
Launch date: May 10, 1999
Source: People's Republic of China (PRC)
Launch site: Taiyaun Space Center, China (TSC)

Note: This is SATELLITE DEBRIS
aabbcc
Your satellite tracking list
Your tracking list is empty




NASA's NSSDC Master Catalog

Two Line Element Set (TLE):
1 30099U 99025RC  17323.77520043  .00000170  00000-0  93520-4 0  9991
2 30099  98.7326  45.3525 0065337 153.9515 329.2150 14.22613670563069
Source of the keplerian elements: AFSPC